Notices

What's New in latest Release from April 7th, 2021:

- Updated Glossary, including Speed of Maximum Gust, and Total Hourly Precipitation

- Updated national and regional climate services offices contacts and prices information

- Addition of station inventory lists for 1981-2010, 1971-2000, and 1961-1990 Normals.

If you haven't already, please take our survey and provide feedback about our website: https://eccc.sondage-survey.ca/f/LanguageSelection.aspx?s=442ca660-fcf1-47c0-95a9-59707d6fd709

Hourly Data Report for April 10, 2021

MIRAMICHI RCS
NEW BRUNSWICK
Current Station Operator: ECCC - MSC

47°00'34.000" N
65°27'54.000" W
33.00 m
8100989
71744
ACQ

Download Data

Hourly Data (April 2021)
Hourly Data Report for April 10, 2021
TIME
LST
Temp Definition
°C
Dew Point Definition
°C
Rel Hum Definition
%
Precip. Amount Definition
mm

Wind Dir Definition
10's deg

Wind Spd Definition
km/h
Visibility Definition
km
Stn Press Definition
kPa
Hmdx Definition


Wind Chill Definition


Weather Definition


00:00 4.0 2.4 89 LegendMM   0   101.47     LegendNANA
01:00 3.0 1.8 92 LegendMM 26 1   101.46     LegendNANA
02:00 1.6 0.6 93 LegendMM 29 2   101.46     LegendNANA
03:00 2.6 0.5 86 LegendMM 4 6   101.43     LegendNANA
04:00 2.1 -0.9 80 LegendMM 5 6   101.41     LegendNANA
05:00 1.3 -2.1 78 LegendMM 3 8   101.40     LegendNANA
06:00 -0.7 -3.1 84 LegendMM   0   101.42     LegendNANA
07:00 2.3 -2.6 70 LegendMM 4 7   101.45     LegendNANA
08:00 3.8 -2.5 63 LegendMM 5 14   101.41     LegendNANA
09:00 4.7 -2.9 58 LegendMM 7 17   101.38     LegendNANA
10:00 5.5 -4.0 51 LegendMM 8 15   101.33     LegendNANA
11:00 6.3 -2.5 54 LegendMM 8 17   101.27     LegendNANA
12:00 6.5 -1.9 55 LegendMM 7 19   101.21     LegendNANA
13:00 4.6 -3.0 57 LegendMM 6 27   101.20     LegendNANA
14:00 3.8 -2.5 63 LegendMM 6 31   101.15     LegendNANA
15:00 3.7 -3.3 60 LegendMM 7 26   101.09     LegendNANA
16:00 3.1 -3.8 60 LegendMM 7 24   101.03     LegendNANA
17:00 2.4 -5.4 56 LegendMM 6 25   100.99     LegendNANA
18:00 1.5 -6.8 54 LegendMM 6 18   100.98     LegendNANA
19:00 0.2 -7.3 57 LegendMM 5 11   101.04     LegendNANA
20:00 -1.1 -6.6 66 LegendMM 5 7   101.08   -4 LegendNANA
21:00 -1.6 -5.9 72 LegendMM 15 3   101.07   -3 LegendNANA
22:00 -2.4 -5.4 80 LegendMM 25 4   101.02   -4 LegendNANA
23:00 -2.8 -5.6 81 LegendMM 27 7   100.96   -6 LegendNANA

Notes on Data Quality.

Legend

  • E = Estimated
  • M = Missing
  • NA = Not Available*
  • [empty] = Indicates an unobserved value
Date modified: